Satellite: NOAA-14
Catalog number: 23455
Epoch time: 09050.47567392
Element set: 517
Inclination: 098.9184 deg
RA of node: 128.5296 deg
Eccentricity: 0.0009870
Arg of perigee: 160.1404 deg
Mean anomaly: 200.0182 deg
Mean motion: 14.13759155 rev/day
Decay rate: 2.84e-06 rev/day^2
Epoch rev: 72929
Checksum: 313
Satellite: NOAA-15
Catalog number: 25338
Epoch time: 09050.49231890
Element set: 823
Inclination: 098.5775 deg
RA of node: 042.3280 deg
Eccentricity: 0.0011459
Arg of perigee: 044.2459 deg
Mean anomaly: 315.9638 deg
Mean motion: 14.24746728 rev/day
Decay rate: 1.02e-06 rev/day^2
Epoch rev: 56001
Checksum: 303
Satellite: RESURS
Catalog number: 25394
Epoch time: 09049.63843955
Element set: 0158
Inclination: 098.3547 deg
RA of node: 087.9370 deg
Eccentricity: 0.0001121
Arg of perigee: 160.6172 deg
Mean anomaly: 199.5048 deg
Mean motion: 14.24179873 rev/day
Decay rate: -3.1e-07 rev/day^2
Epoch rev: 55152
Checksum: 315
Satellite: FENGYUN1
Catalog number: 25730
Epoch time: 09049.95916732
Element set: 0723
Inclination: 098.7459 deg
RA of node: 023.7092 deg
Eccentricity: 0.0021878
Arg of perigee: 190.4606 deg
Mean anomaly: 169.6110 deg
Mean motion: 14.07926219 rev/day
Decay rate: 2.75e-06 rev/day^2
Epoch rev: 50368
Checksum: 321
Satellite: OKEAN-0
Catalog number: 25860
Epoch time: 09050.83389138
Element set: 604
Inclination: 097.7753 deg
RA of node: 036.7504 deg
Eccentricity: 0.0000939
Arg of perigee: 105.2481 deg
Mean anomaly: 254.8828 deg
Mean motion: 14.73559209 rev/day
Decay rate: 3.1e-07 rev/day^2
Epoch rev: 51586
Checksum: 315
Satellite: NOAA-16
Catalog number: 26536
Epoch time: 09050.49417230
Element set: 298
Inclination: 099.1760 deg
RA of node: 051.3233 deg
Eccentricity: 0.0009780
Arg of perigee: 250.8777 deg
Mean anomaly: 109.1356 deg
Mean motion: 14.12509685 rev/day
Decay rate: -6.1e-07 rev/day^2
Epoch rev: 43368
Checksum: 310
Satellite: NOAA-17
Catalog number: 27453
Epoch time: 09049.53895677
Element set: 0304
Inclination: 098.5004 deg
RA of node: 112.6165 deg
Eccentricity: 0.0012780
Arg of perigee: 109.4618 deg
Mean anomaly: 250.7948 deg
Mean motion: 14.24042264 rev/day
Decay rate: 1.38e-06 rev/day^2
Epoch rev: 34586
Checksum: 315
Satellite: NOAA-18
Catalog number: 28654
Epoch time: 09050.42638866
Element set: 790
Inclination: 098.8958 deg
RA of node: 354.6479 deg
Eccentricity: 0.0014219
Arg of perigee: 339.5682 deg
Mean anomaly: 020.4912 deg
Mean motion: 14.11233418 rev/day
Decay rate: -1.89e-06 rev/day^2
Epoch rev: 19334
Checksum: 340
/EX
SB KEPS @ AMSAT $ORB09050.M
Orbital Elements 09050.MISC
HR AMSAT ORBITAL ELEMENTS FOR MANNED AND MISCELLANEOUS SATELLITES
FROM WA5QGD FORT WORTH,TX February 19, 2009
Send Subscribe/unsubscribe to KEPS at
http://www.amsat.org/mailman/listinfo/keps
BID: ORB09050.M
TO ALL RADIO AMATEURS BT
Satellite: HUBBLE
Catalog number: 20580
Epoch time: 09050.58826032
Element set: 330
Inclination: 028.4688 deg
RA of node: 149.5183 deg
Eccentricity: 0.0003872
Arg of perigee: 134.1879 deg
Mean anomaly: 225.9029 deg
Mean motion: 15.00456727 rev/day
Decay rate: 3.63e-06 rev/day^2
Epoch rev: 83217
Checksum: 297
Satellite: PO-34
Catalog number: 25520
Epoch time: 09050.84913617
Element set: 188
Inclination: 028.4617 deg
RA of node: 320.5826 deg
Eccentricity: 0.0005280
Arg of perigee: 106.2068 deg
Mean anomaly: 253.9111 deg
Mean motion: 15.17298402 rev/day
Decay rate: 3.88e-06 rev/day^2
Epoch rev: 57081
Checksum: 294
Satellite: ISS
Catalog number: 25544
Epoch time: 09049.90904766
Element set: 0301
Inclination: 051.6395 deg
RA of node: 192.6700 deg
Eccentricity: 0.0009226
Arg of perigee: 040.3884 deg
Mean anomaly: 099.9675 deg
Mean motion: 15.70973343 rev/day
Decay rate: 8.462e-05 rev/day^2
Epoch rev: 58734
Checksum: 329
Satellite: CO-58
Catalog number: 28895
Epoch time: 09050.37177532
Element set: 236
Inclination: 098.0750 deg
RA of node: 304.1925 deg
Eccentricity: 0.0017785
Arg of perigee: 000.1818 deg
Mean anomaly: 359.9362 deg
Mean motion: 14.59742687 rev/day
Decay rate: 2.5e-07 rev/day^2
Epoch rev: 17654
Checksum: 335
Satellite: FALCON
Catalog number: 30776
Epoch time: 09049.54254855
Element set: 0517
Inclination: 035.4335 deg
RA of node: 099.2079 deg
Eccentricity: 0.0001785
Arg of perigee: 327.4459 deg
Mean anomaly: 032.6147 deg
Mean motion: 15.03171400 rev/day
Decay rate: 3.69e-06 rev/day^2
Epoch rev: 10723
Checksum: 295
Satellite: MAST
Catalog number: 31126
Epoch time: 09048.45801306
Element set: 0531
Inclination: 098.0074 deg
RA of node: 108.6567 deg
Eccentricity: 0.0093602
Arg of perigee: 291.6848 deg
Mean anomaly: 067.4411 deg
Mean motion: 14.53477405 rev/day
Decay rate: -4.6e-07 rev/day^2
Epoch rev: 09764
Checksum: 299
Satellite: CAPE1
Catalog number: 31130
Epoch time: 09049.82526855
Element set: 0533
Inclination: 098.0064 deg
RA of node: 108.4105 deg
Eccentricity: 0.0101700
Arg of perigee: 292.2080 deg
Mean anomaly: 066.8314 deg
Mean motion: 14.52033007 rev/day
Decay rate: -1.38e-06 rev/day^2
Epoch rev: 09751
Checksum: 258
Satellite: COMPASS
Catalog number: 32787
Epoch time: 09050.85840237
Element set: 284
Inclination: 097.9575 deg
RA of node: 115.6024 deg
Eccentricity: 0.0017009
Arg of perigee: 056.3699 deg
Mean anomaly: 303.9115 deg
Mean motion: 14.81548717 rev/day
Decay rate: -5.5e-07 rev/day^2
Epoch rev: 4407
Checksum: 312
Satellite: AAUSAT2
Catalog number: 32788
Epoch time: 09050.83588516
Element set: 285
Inclination: 097.9582 deg
RA of node: 115.6207 deg
Eccentricity: 0.0016678
Arg of perigee: 058.0441 deg
Mean anomaly: 302.2331 deg
Mean motion: 14.81668662 rev/day
Decay rate: 4.9e-07 rev/day^2
Epoch rev: 4407
Checksum: 315
Satellite: DO-64
Catalog number: 32789
Epoch time: 09050.71985478
Element set: 295
Inclination: 097.9622 deg
RA of node: 115.6006 deg
Eccentricity: 0.0016637
Arg of perigee: 055.9080 deg
Mean anomaly: 304.3699 deg
Mean motion: 14.81617181 rev/day
Decay rate: 1.13e-06 rev/day^2
Epoch rev: 4405
Checksum: 322
Satellite: CO-66
Catalog number: 32791
Epoch time: 09049.26704601
Element set: 0277
Inclination: 097.9606 deg
RA of node: 114.0517 deg
Eccentricity: 0.0017111
Arg of perigee: 058.8153 deg
Mean anomaly: 301.4735 deg
Mean motion: 14.81388023 rev/day
Decay rate: 8.8e-07 rev/day^2
Epoch rev: 04380
Checksum: 298
Satellite: RS-30
Catalog number: 32953
Epoch time: 09050.19190436
Element set: 235
Inclination: 082.5071 deg
RA of node: 329.9938 deg
Eccentricity: 0.0020213
Arg of perigee: 075.2101 deg
Mean anomaly: 285.1227 deg
Mean motion: 12.42999778 rev/day
Decay rate: 1.0e-07 rev/day^2
Epoch rev: 3373
Checksum: 285
/EX
More information about the Keps
mailing list